Regional Weather Roundup
Issued by NWS

Home | Current Version | Previous Version | Graphics & Text | Print | Product List | Glossary On
Versions: 1 2 3 4 5 6 7 8 9 10 11 12 13 14 15 16 17 18 19 20 21 22 23 24 25 26 27 28 29 30 31 32 33 34 35 36 37 38 39 40 41 42 43 44 45 46 47 48 49 50
000
ASUS43 KDMX 210307
RWRIA

WEATHER ROUNDUP FOR IOWA
NATIONAL WEATHER SERVICE DES MOINES IA
1000 PM CDT MON OCT 20 2014

NOTE: "FAIR" INDICATES FEW OR NO CLOUDS BELOW 12,000 FEET WITH NO
SIGNIFICANT WEATHER AND/OR OBSTRUCTIONS TO VISIBILITY.

* - THESE STATIONS ARE NOT NWS STATIONS...THUS NOT UNDER NWS
QUALITY CONTROL.  THEY ALSO DO NOT REPORT WEATHER SUCH
AS PRECIPITATION OR FOG.

IAZ001>003-012>014-020>022-031>034-043>046-210400-
   NORTHWEST IOWA

CITY           SKY/WX    TMP DP  RH WIND       PRES   REMARKS
CARROLL *      MOCLDY    43  39  87 CALM      30.04S
CHEROKEE *     CLEAR     45  41  87 CALM      30.05R
DENISON *      PTCLDY    43  41  93 SE5       30.04S
LE MARS *      CLEAR     43  39  87 CALM      30.06R
ORANGE CITY *  CLEAR     57  39  51 CALM      30.06R
SHELDON *      CLEAR     43  36  75 CALM      30.06R
SIOUX CITY     CLEAR     42  40  92 CALM      30.06R
SPENCER        CLEAR     41  35  79 CALM      30.06R
STORM LAKE *   CLEAR     54  37  54 N6        30.06R
$$

IAZ055>058-069>071-079>083-090>094-210400-
   SOUTHWEST IOWA

CITY           SKY/WX    TMP DP  RH WIND       PRES   REMARKS
ATLANTIC *     CLEAR     43  39  87 CALM      30.05R
AUDUBON *      CLEAR     41  36  81 CALM      30.06S
CLARINDA *     CLEAR     43  41  93 CALM      30.08R
COUNCIL BLFS * CLEAR     59  39  47 SW3       30.05R
CRESTON *      CLEAR     52  41  66 NW5       30.06S
HARLAN  *      CLEAR     45  43  93 CALM      30.09R
LAMONI         CLEAR     52  42  69 W5        30.05S
RED OAK *      PTCLDY    45  41  87 CALM      30.06R
SHENANDOAH *   CLEAR     45  41  87 CALM      30.07R
$$

IAZ047>049-059>061-072>074-084-210400-
   CENTRAL IOWA

CITY           SKY/WX    TMP DP  RH WIND       PRES   REMARKS
AMES           CLEAR     44  39  82 CALM      30.04R
ANKENY *       CLEAR     48  45  87 CALM      30.04R
CHARITON *     CLEAR     54  43  66 W6        30.05R
DES MOINES     CLEAR     56  40  55 CALM      30.04R
GRINNELL*      CLEAR     52  41  66 NW3       30.04R
KNOXVILLE *    CLEAR     55  39  54 NW5       30.03R
MARSHALLTOWN   CLEAR     47  39  74 NW5       30.03R
PELLA *        CLEAR     52  41  66 N3        30.05R
PERRY *          N/A     48  41  76 W8        30.05R
$$

IAZ004>006-015-016-023>025-035-036-210400-
   NORTH CENTRAL IOWA

CITY           SKY/WX    TMP DP  RH WIND       PRES   REMARKS
ALGONA *       CLEAR     45  37  76 CALM      30.05R
CLARION *      CLEAR     41  39  93 CALM      30.04R
ESTHERVILLE    CLEAR     42  35  76 NW6       30.05R
FORT DODGE *   CLEAR     45  37  76 CALM      30.05R
MASON CITY     CLEAR     43  38  82 N7        30.06R
FOREST CITY *  CLEAR     43  41  93 NE3       30.04S
IOWA FALLS *     N/A     46  39  76 CALM      30.05R
$$

IAZ007>011-017>019-026>030-037>042-050>054-066-210400-
   NORTHEAST IOWA

CITY           SKY/WX    TMP DP  RH WIND       PRES   REMARKS
CEDAR RAPIDS   CLEAR     47  41  80 NW5       30.01R
CHARLES CITY * CLEAR     45  39  81 N5        30.05R
CLINTON *      CLEAR     43  37  81 E8        30.04R
DECORAH *      MOCLDY    50  41  71 VRB6      30.03R
DUBUQUE        CLEAR     47  41  80 NE7       30.03R
MONTICELLO *   CLEAR     46  43  87 CALM      30.02R
OELWEIN *      CLEAR     50  41  71 N6        30.04R
WATERLOO       CLEAR     44  38  79 CALM      30.03R
$$

IAZ064-065-067-068-078-210400-
   EAST CENTRAL IOWA

CITY           SKY/WX    TMP DP  RH WIND       PRES   REMARKS
DAVENPORT      CLEAR     50  40  68 N6        30.01R
IOWA CITY      CLEAR     47  42  83 NW5       30.03R
MT. PLEASANT * CLEAR     50  41  71 W5        30.02R
MUSCATINE *    CLEAR     50  43  76 N3        30.01R
QUAD CITIES    CLEAR     48  42  80 CALM      30.00R
$$

IAZ062-063-075>077-085>089-095>099-210400-
   SOUTHEAST IOWA

CITY           SKY/WX    TMP DP  RH WIND       PRES   REMARKS
BURLINGTON     CLEAR     51  44  77 NW5       30.01R
FAIRFIELD *    CLEAR     50  41  71 NW6       30.03R
FORT MADISON * CLEAR     54  45  71 W5        30.02S
KEOKUK *       CLEAR     54  45  71 NW3       30.01R
OSKALOOSA *      N/A     48  41  76 NW6       30.04R
CENTERVILLE *  CLEAR     43  41  93 W3        30.06R
OTTUMWA        CLEAR     48  41  76 W5        30.03R
WASHINGTON *   CLEAR     52  43  71 NW7       30.02R
$$

ABBREVIATIONS USED IN REMARKS
   TC - TEMPERATURES IN CELSIUS
  WCI - WIND CHILL INDEX
   HX - HEAT INDEX
  VSB - VISIBILITY
$$




USA.gov is the U.S. government's official web portal to all federal, state and local government web resources and services.